Back to catalog

ATLAS 5 CENTAUR DEB

LostHEO
NORAD 49344·DEBRIS·🇺🇸 United States

Launched Oct 17, 2018 from Cape Canaveral Space Force Station

Loading…

Next Passes (next 24 hours)

TLE

StaleSource: Space-Track

Epoch: Jul 14, 2024, 06:23 UTC

1 49344U 18079EV  24196.26639696 -.00000067  00000-0  00000+0 0  9991
2 49344  11.4147 115.1449 4627890 153.1316 241.0054  1.73120665 18180

Track ATLAS 5 CENTAUR DEB in real time with AllMySat

Download on the App Store